Regional Weather Roundup
Issued by NWS

Home | Current Version | Previous Version | Text Only | Print | Product List | Glossary On
Versions: 1 2 3 4 5 6 7 8 9 10 11 12 13 14 15 16 17 18 19 20 21 22 23 24 25 26 27 28 29 30 31 32 33 34 35 36 37 38 39 40 41 42 43 44 45 46 47 48 49 50
000
ASUS43 KBIS 051910
RWRND

NORTH DAKOTA REGIONAL WEATHER ROUNDUP
NATIONAL WEATHER SERVICE BISMARCK ND
100 PM CST THU MAR 05 2015

NOTE: "FAIR" INDICATES FEW OR NO CLOUDS BELOW 12,000 FEET WITH NO
SIGNIFICANT WEATHER AND/OR OBSTRUCTIONS TO VISIBILITY.


NDZ001>003-009>011-017-052000-
NORTHWEST NORTH DAKOTA

CITY           SKY/WX    TMP DP  RH WIND       PRES   REMARKS
WILLISTON      NOT AVBL
MINOT          SUNNY     20   7  57 S8        30.05S WCI  10
MINOT AFB      SUNNY     22  11  62 W12       30.05S WCI  11
$$

NDZ018>021-031>035-040>046-052000-
SOUTHWEST NORTH DAKOTA

CITY           SKY/WX    TMP DP  RH WIND       PRES   REMARKS
BISMARCK       NOT AVBL
DICKINSON      SUNNY     39  10  30 NW16G23   30.01F
GARRISON         N/A     23  10  57 SW8       30.06F WCI  14
$$

NDZ004>008-012>016-024-026-027-054-052000-
NORTHEAST NORTH DAKOTA

CITY           SKY/WX    TMP DP  RH WIND       PRES   REMARKS
GRND FRKS AFB  SUNNY     21   3  45 SW16      30.20F WCI   7
DEVILS LAKE    SUNNY     18   5  57 SW12      30.13S WCI   5
$$

NDZ022-023-025-028>030-036>039-047>053-052000-
SOUTHEAST NORTH DAKOTA

CITY           SKY/WX    TMP DP  RH WIND       PRES   REMARKS
FARGO          NOT AVBL
JAMESTOWN      SUNNY     22   9  57 S18       30.16F WCI   7
$$




USA.gov is the U.S. government's official web portal to all federal, state and local government web resources and services.